EW1541 Weather Reports


Display with metric or nautical units.
time (UTC)temp
F
wind
direction
speed
MPH
gust
MPH
rain 1hr
in
rain 24hr
in
rain mn
in
humidity
%
barometer
mb
20260503033022 0 281 0.0 0.0 0.00 0.32 0.00 1012.5
20260503031518 0 281 0.0 0.0 0.00 0.32 0.00 1012.6
20260503030017 0 281 0.0 0.0 0.00 0.32 0.00 1012.5
20260503024509 0 281 0.0 0.0 0.00 0.33 0.00 1012.6
20260503023005 0 281 0.0 0.0 0.00 0.33 0.00 1012.7
20260503021605 0 281 0.0 1.0 0.00 0.33 0.00 1012.7
20260503020101 0 281 0.0 0.0 0.00 0.33 0.00 1012.8
20260503014555 0 281 0.0 2.0 0.00 0.34 0.00 1012.8
20260503013048 0 281 0.0 5.0 0.00 0.34 0.00 1013.0
20260503011552 0 281 2.0 5.0 0.00 0.34 0.00 1013.1
20260503010040 0 281 2.0 5.0 0.00 0.34 0.00 1013.3
20260503004533 0 281 0.0 0.0 0.00 0.39 0.00 1013.3
20260503003030 0 281 0.0 0.0 0.00 0.39 0.00 1013.4
20260503001525 0 281 0.0 5.0 0.00 0.39 0.00 1013.5
20260503000020 0 281 0.0 4.0 0.00 0.39 0.00 1013.6
20260502234516 0 281 1.0 4.0 0.00 0.39 0.00 1013.8
20260502233012 0 281 3.0 5.0 0.00 0.39 0.00 1014.0
20260502231516 0 281 0.0 2.0 0.00 0.39 0.00 1014.0
20260502230004 0 281 3.0 5.0 0.00 0.39 0.00 1013.9
20260502224602 0 281 0.0 0.0 0.00 0.39 0.00 1014.0
20260502223055 0 281 0.0 5.0 0.00 0.39 0.00 1014.0
20260502221554 0 282 5.0 7.0 0.00 0.39 0.00 1014.1
20260502220050 0 283 0.0 5.0 0.00 0.39 0.00 1014.1
20260502214547 0 283 1.0 4.0 0.00 0.39 0.39 1014.2
20260502213040 0 283 0.0 2.0 0.00 0.39 0.39 1014.2
20260502211540 0 283 0.0 4.0 0.00 0.39 0.39 1014.3
20260502210036 0 283 0.0 5.0 0.00 0.39 0.39 1014.3
20260502204531 0 283 0.0 0.0 0.00 0.39 0.39 1014.3
20260502203028 0 283 0.0 5.0 0.00 0.39 0.39 1014.2
20260502201527 0 283 1.0 5.0 0.01 0.39 0.39 1014.3
20260502200020 0 283 0.0 7.0 0.01 0.39 0.39 1014.4
20260502194514 0 283 4.0 9.0 0.01 0.39 0.39 1014.4
20260502193010 0 281 5.0 11.0 0.02 0.39 0.39 1014.4
20260502191506 0 320 1.0 5.0 0.01 0.39 0.39 1014.4
20260502190002 0 321 4.0 13.0 0.01 0.39 0.39 1014.5
20260502184610 0 31 1.0 4.0 0.01 0.39 0.39 1014.3
20260502183055 0 31 2.0 5.0 0.00 0.38 0.38 1014.2
20260502181552 0 31 0.0 2.0 0.00 0.38 0.38 1014.1
20260502163032 0 307 0.0 0.0 0.00 0.38 0.38 1014.2
20260502161517 0 307 0.0 0.0 0.00 0.38 0.38 1014.2
20260502151604 0 307 1.0 2.0 0.01 0.38 0.38 1014.3
20260502123009 0 314 2.0 9.0 0.02 0.35 0.35 1013.9
20260502121505 0 314 2.0 6.0 0.03 0.35 0.35 1013.7
20260502114558 0 315 4.0 8.0 0.03 0.33 0.33 1013.7
20260502113054 0 315 0.0 6.0 0.04 0.33 0.33 1013.6
20260502111549 0 315 0.0 5.0 0.03 0.31 0.31 1013.5
20260502110048 0 315 0.0 4.0 0.04 0.31 0.31 1013.5
20260502104538 0 315 1.0 8.0 0.03 0.30 0.30 1013.3
20260502103034 0 315 1.0 8.0 0.04 0.28 0.28 1013.2
20260502101531 0 315 0.0 8.0 0.04 0.28 0.28 1013.1
20260502091512 0 281 0.0 7.0 0.04 0.24 0.24 1012.5
20260502071535 0 266 3.0 9.0 0.04 0.17 0.17 1010.9
20260502070031 0 5 7.0 12.0 0.04 0.15 0.15 1010.8
20260502064531 0 22 6.0 9.0 0.04 0.14 0.14 1010.8
20260502063022 0 321 0.0 0.0 0.03 0.13 0.13 1010.5
20260502061517 0 321 0.0 2.0 0.03 0.13 0.13 1010.4
20260502060013 0 321 0.0 5.0 0.02 0.11 0.11 1010.3
20260502054517 0 321 1.0 6.0 0.02 0.10 0.10 1010.3
20260502053004 0 321 1.0 5.0 0.02 0.10 0.10 1010.2
20260502051501 0 321 1.0 5.0 0.02 0.09 0.09 1010.0
20260502050058 0 5 3.0 12.0 0.02 0.09 0.09 1010.0
20260502044554 0 5 5.0 12.0 0.02 0.09 0.09 1010.1
20260502043057 0 306 7.0 11.0 0.02 0.09 0.09 1009.9
20260502041552 0 323 6.0 10.0 0.01 0.08 0.08 1010.0
20260502040041 0 19 1.0 6.0 0.01 0.08 0.08 1009.8
20260502034538 0 19 4.0 6.0 0.00 0.07 0.07 1009.9